Regional Weather Roundup
Issued by NWS Charleston, SC

Home | Current Version | Previous Version | Text Only | Print | Product List | Glossary On
Versions: 1 2 3 4 5 6 7 8 9 10 11 12 13 14 15 16 17 18 19 20 21 22 23 24 25 26 27 28 29 30 31 32 33 34 35 36 37 38 39 40 41 42 43 44 45 46 47 48 49 50
000
ASUS42 KCHS 211127
RWRCHS

Regional Weather Roundup
National Weather Service Charleston SC
600 AM EST WED FEB 21 2018

NOTE: "fair" indicates few or no clouds below 12,000 feet with no
significant weather and/or obstructions to visibility.

Not all stations are quality controlled. Use data with caution,
especially dewpoint observations.

SCZ027-030-031-034>040-042>050-211200-
...Southeast South Carolina...

CITY           SKY/WX    TMP DP  RH WIND       PRES   REMARKS
N Charleston   FAIR      63  62  97 CALM      30.44R FOG
Waterfront Prk   N/A     63  63 100 CALM      30.29R
Mount Pleasant FAIR      59  59 100 CALM      30.45R
Johns Island   FOG       61  61 100 CALM      30.44S VSB<1/4
Pinopolis        N/A     63  63 100 CALM      30.35R
Moncks Corner  FOG       57  57 100 CALM      30.45R VSB 1/4
Summerville    FOG       59  59 100 CALM      30.45R VSB 1/2
Beaufort MCAS  CLOUDY    62  62 100 CALM      30.43R FOG
Beaufort Arpt  FAIR      63  63 100 CALM      30.43R FOG
Hilton Head Is FAIR      64  64 100 CALM      30.43S FOG
Walterboro     FOG       59  59 100 CALM      30.45R VSB 3/4
Allendale      CLOUDY    64  64 100 CALM      30.43R

...Southern Midlands and Pee Dee...

CITY           SKY/WX    TMP DP  RH WIND       PRES   REMARKS
Georgetown     FOG       55  55 100 CALM      30.46R VSB 1/4
Kingstree      FOG       57  55  94 CALM      30.45R VSB 1/4
Orangeburg     FOG       61  60  97 CALM      30.44R VSB 1/2
Barnwell       FOG       66  66 100 CALM      30.44R VSB 1
Aiken          FAIR      63  63 100 SE6       30.46R
Manning        FOG       59  57  94 MISG      30.45R VSB 1/2
Columbia       CLOUDY    69  67  93 S5        30.42R
Sumter         FOG       63  63 100 CALM      30.42R VSB 1/4
Florence       FOG       61  61 100 CALM      30.45R VSB 1/4
Myrtle Beach   FOG       61  61 100 SE6       30.46R VSB 1/4
N Myrtle Beach FOG       62  62 100 S3        30.46R VSB 3/4

$$

GAZ063-065-086>088-099>101-113>116-118-119-134>141-150-211200-
...Southeast Georgia...

CITY           SKY/WX    TMP DP  RH WIND       PRES   REMARKS
Savannah Arpt  MOCLDY    64  64 100 CALM      30.42R
Hunter AAF     FAIR      67  65  95 CALM      30.39R
Fort Stewart   CLOUDY    64  64 100 CALM      30.40R
Statesboro     CLOUDY    69  32  25 CALM      30.42S
Sylvania       CLOUDY    67  67 100 CALM      30.43S FOG
Claxton        CLOUDY    68  67  98 CALM      30.42R FOG

...CSRA, Central and far Southeast Georgia...

CITY           SKY/WX    TMP DP  RH WIND       PRES   REMARKS
Thomson        FAIR      67  65  94 SW6       30.46S
Augusta-Bush   CLOUDY    67  66  97 SE5       30.41S
Augusta-Daniel MOCLDY    68  66  93 SE6       30.43R
Swainsboro     CLOUDY    68  68 100 SE3       30.42S
Vidalia        CLOUDY    70  68  94 S3        30.41S
Eastman        CLOUDY    72  61  69 CALM      30.42S
Hazlehurst     CLOUDY    70  70  98 CALM      30.39R
Alma           CLOUDY    69  67  93 CALM      30.40R
Waycross       CLOUDY    69  66  90 SE3       30.40R
Jesup          CLOUDY    66  64  94 CALM      30.41R
Baxley         CLOUDY    68  66  94 CALM      30.40S
Brunswick      CLOUDY    68  64  88 CALM      30.42R
Saint Simons   CLOUDY    68  67  96 CALM      30.40R

$$

SCZ027-028-034-036>038-045-046-048>050-GAZ119-141-211200-
...Lake and Supplemental Coastal Observations...

STATION/POSITION TIME  TEMP    WIND        PRES    WAVE   SWELL
                       AIR SEA DIR/SP/G            HT/PER HT/PER/DIR
                 (UTC) (F)     (DEG/KT/KT) (MB)    (FT/S) (FT/S/D)
Winyah Bay       1045   62        CALM     1031.0S
Lake Murray      1120   63     200/  5/  7 1029.8R
ACE Basin NERRS  1045   64        CALM     1030.0S
Fort Pulaski     1100   65 61     CALM     1030.5
Sapelo Island    1100   67     160/  5     1030.0

$$

ANZ835-935-AMZ111-154-330-350-352-354-370-450-454-472-211200-
...C-MAN and Buoy Observations...

STATION/POSITION TIME  TEMP    WIND        PRES    WAVE   SWELL
                       AIR SEA DIR/SP/G            HT/PER HT/PER/DIR
                 (UTC) (F)     (DEG/KT/KT) (MB)    (FT/S) (FT/S/D)
Buoy 41004       1110   70 68  150/  4/  6 1030.7
Buoy 41008       1050   62 57   80/  4/  6 1029.6R   3/ 6   3/120/ 6
Folly Beach CMAN 1100   62      70/  2/  3 1031.2R
Capers Nearshore 1008   57 59  120/  6/  8 1030.1R
Fripp Nearshore  1008   59 59  110/  4/  8 1029.3R


STATION/POSITION TIME  TEMP    WIND        PRES    WAVE   SWELL
                       AIR SEA DIR/SP/G            HT/PER HT/PER/DIR
                 (UTC) (F)     (DEG/KT/KT) (MB)    (FT/S) (FT/S/D)
5E St. Marys GA  1100      62                N/A     3/ 6
Frying Pan Buoy  1110   71 69  170/  6/  8 1031.6
Buoy 41025       1110   72 71  180/ 10/ 12 1032.8
Cape Lookout NC  1100          170/  4/  5 1032.4R
Buoy 41002       1050   72 74  120/ 14/ 16 1032.3R   5/11   3/ 40/11
Buoy 41010       NOT AVBL
St Augustine FL  1100   67 64  150/  5/  6 1029.3R


$$




USA.gov is the U.S. government's official web portal to all federal, state and local government web resources and services.